| time (UTC) | temp F | wind direction | speed knots | gust knots | rain 1hr in | rain 24hr in | rain mn in | humidity % | barometer mb |
| 20260906101705 | 89 | 190 | 0.0 | 2.6 | 0.00 | 0.00 | 0.00 | 36 | 1021.9 |
| 20260906101240 | 89 | 169 | 0.0 | 0.0 | 0.00 | 0.00 | 0.00 | 36 | 941.2 |
| 20260906101100 | 88 | 214 | 0.0 | 1.7 | 0.00 | 0.00 | 0.00 | 37 | 941.3 |
| 20260906101005 | 88 | 214 | 0.0 | 1.7 | 0.00 | 0.00 | 0.00 | 37 | 941.3 |
| 20260906100647 | 88 | 175 | 0.0 | 4.3 | 0.00 | 0.00 | 0.00 | 36 | 1021.9 |
| 20260906100522 | 89 | 237 | 0.0 | 1.7 | 0.00 | 0.00 | 0.00 | 37 | 941.2 |
| 20260906100400 | 89 | 237 | 0.0 | 1.7 | 0.00 | 0.00 | 0.00 | 37 | 941.2 |
| 20260906100145 | 90 | 226 | 0.0 | 4.3 | 0.00 | 0.00 | 0.00 | 36 | 1021.9 |
| 20260906095931 | 90 | 18 | 0.0 | 0.0 | 0.00 | 0.00 | 0.00 | 36 | 1022.0 |
| 20260906095855 | 90 | 18 | 0.0 | 0.0 | 0.00 | 0.00 | 0.00 | 36 | 1022.0 |
| 20260906095736 | 90 | 220 | 0.0 | 0.0 | 0.00 | 0.00 | 0.00 | 36 | 941.3 |
| 20260906095239 | 89 | 18 | 0.0 | 0.0 | 0.00 | 0.00 | 0.00 | 35 | 941.3 |
| 20260906095136 | 89 | 176 | 0.0 | 0.0 | 0.00 | 0.00 | 0.00 | 36 | 1022.0 |
| 20260906094842 | 89 | 152 | 0.0 | 1.7 | 0.00 | 0.00 | 0.00 | 36 | 941.4 |
| 20260906094636 | 89 | 165 | 0.0 | 3.5 | 0.00 | 0.00 | 0.00 | 37 | 1021.9 |
| 20260906094505 | 89 | 210 | 0.0 | 1.7 | 0.00 | 0.00 | 0.00 | 38 | 941.3 |
| 20260906094348 | 89 | 210 | 0.0 | 1.7 | 0.00 | 0.00 | 0.00 | 38 | 941.3 |
| 20260906094136 | 89 | 217 | 0.9 | 3.5 | 0.00 | 0.00 | 0.00 | 39 | 1021.9 |
| 20260906093736 | 89 | 190 | 0.0 | 1.7 | 0.00 | 0.00 | 0.00 | 38 | 941.4 |
| 20260906093721 | 89 | 179 | 0.0 | 0.9 | 0.00 | 0.00 | 0.00 | 38 | 1021.9 |
| 20260906093345 | 89 | 171 | 0.0 | 0.9 | 0.00 | 0.00 | 0.00 | 38 | 1022.0 |
| 20260906093239 | 88 | 183 | 0.0 | 1.7 | 0.00 | 0.00 | 0.00 | 38 | 941.4 |
| 20260906092737 | 89 | 52 | 0.0 | 0.0 | 0.00 | 0.00 | 0.00 | 37 | 941.4 |
| 20260906092636 | 89 | 171 | 0.0 | 0.0 | 0.00 | 0.00 | 0.00 | 38 | 1022.0 |
| 20260906092238 | 88 | 157 | 0.0 | 0.0 | 0.00 | 0.00 | 0.00 | 37 | 941.5 |
| 20260906092135 | 88 | 176 | 0.0 | 0.0 | 0.00 | 0.00 | 0.00 | 38 | 1022.0 |
| 20260906091736 | 89 | 230 | 0.0 | 4.3 | 0.00 | 0.00 | 0.00 | 37 | 941.5 |
| 20260906091637 | 88 | 234 | 0.0 | 0.0 | 0.00 | 0.00 | 0.00 | 36 | 1022.0 |
| 20260906091345 | 88 | 224 | 0.0 | 4.3 | 0.00 | 0.00 | 0.00 | 35 | 941.5 |
| 20260906091134 | 89 | 197 | 0.0 | 0.0 | 0.00 | 0.00 | 0.00 | 33 | 1022.0 |
| 20260906090734 | 90 | 186 | 0.0 | 0.0 | 0.00 | 0.00 | 0.00 | 36 | 941.5 |
| 20260906090652 | 90 | 233 | 0.0 | 0.0 | 0.00 | 0.00 | 0.00 | 33 | 1022.0 |
| 20260906090238 | 90 | 233 | 0.0 | 0.0 | 0.00 | 0.00 | 0.00 | 34 | 941.5 |
| 20260906090115 | 89 | 233 | 0.0 | 0.0 | 0.00 | 0.00 | 0.00 | 34 | 1022.0 |
| 20260906085953 | 88 | 230 | 0.0 | 0.0 | 0.00 | 0.00 | 0.00 | 35 | 941.4 |
| 20260906085851 | 88 | 230 | 0.0 | 0.0 | 0.00 | 0.00 | 0.00 | 35 | 941.4 |
| 20260906085701 | 89 | 196 | 0.0 | 0.0 | 0.00 | 0.00 | 0.00 | 36 | 1022.0 |
| 20260906085643 | 88 | 254 | 0.0 | 0.0 | 0.00 | 0.00 | 0.00 | 35 | 1022.0 |
| 20260906085238 | 89 | 196 | 0.0 | 0.0 | 0.00 | 0.00 | 0.00 | 35 | 941.4 |
| 20260906085104 | 89 | 196 | 0.0 | 0.0 | 0.00 | 0.00 | 0.00 | 36 | 1022.0 |
| 20260906085002 | 89 | 199 | 0.0 | 0.0 | 0.00 | 0.00 | 0.00 | 34 | 941.5 |
| 20260906084840 | 89 | 199 | 0.0 | 0.0 | 0.00 | 0.00 | 0.00 | 34 | 941.5 |
| 20260906084607 | 88 | 199 | 0.0 | 0.0 | 0.00 | 0.00 | 0.00 | 36 | 1022.0 |
| 20260906084239 | 87 | 199 | 0.0 | 0.0 | 0.00 | 0.00 | 0.00 | 36 | 941.4 |
| 20260906084106 | 87 | 200 | 0.0 | 0.0 | 0.00 | 0.00 | 0.00 | 36 | 1022.0 |
| 20260906083733 | 87 | 195 | 0.0 | 0.0 | 0.00 | 0.00 | 0.00 | 36 | 941.4 |
| 20260906083610 | 87 | 195 | 0.0 | 0.0 | 0.00 | 0.00 | 0.00 | 37 | 1021.9 |
| 20260906083238 | 87 | 164 | 0.0 | 0.0 | 0.00 | 0.00 | 0.00 | 38 | 941.4 |
| 20260906083105 | 87 | 164 | 0.0 | 0.0 | 0.00 | 0.00 | 0.00 | 37 | 1021.9 |
| 20260906082736 | 87 | 158 | 0.0 | 0.0 | 0.00 | 0.00 | 0.00 | 37 | 941.3 |
| 20260906082613 | 87 | 142 | 0.0 | 0.0 | 0.00 | 0.00 | 0.00 | 37 | 1021.9 |
| 20260906082353 | 87 | 212 | 0.0 | 0.0 | 0.00 | 0.00 | 0.00 | 38 | 1021.8 |
| 20260906082312 | 87 | 212 | 0.0 | 0.0 | 0.00 | 0.00 | 0.00 | 38 | 1021.8 |
| 20260906082237 | 87 | 212 | 0.0 | 0.9 | 0.00 | 0.00 | 0.00 | 38 | 941.4 |
| 20260906081734 | 86 | 212 | 0.0 | 0.9 | 0.00 | 0.00 | 0.00 | 38 | 941.2 |
| 20260906081725 | 86 | 206 | 0.0 | 0.0 | 0.00 | 0.00 | 0.00 | 38 | 941.2 |
| 20260906081557 | 86 | 212 | 0.0 | 0.0 | 0.00 | 0.00 | 0.00 | 38 | 1021.8 |
| 20260906081238 | 86 | 206 | 0.0 | 0.0 | 0.00 | 0.00 | 0.00 | 38 | 941.2 |
| 20260906081054 | 86 | 206 | 0.0 | 0.0 | 0.00 | 0.00 | 0.00 | 38 | 1021.8 |
| 20260906081007 | 86 | 206 | 0.0 | 0.0 | 0.00 | 0.00 | 0.00 | 39 | 941.2 |
| 20260906080853 | 86 | 206 | 0.0 | 0.0 | 0.00 | 0.00 | 0.00 | 39 | 941.2 |
| 20260906080537 | 87 | 189 | 0.0 | 0.0 | 0.00 | 0.00 | 0.00 | 38 | 1021.7 |
| 20260906080236 | 87 | 186 | 0.0 | 0.0 | 0.00 | 0.00 | 0.00 | 38 | 941.2 |
| 20260906080036 | 86 | 188 | 0.0 | 0.0 | 0.00 | 0.00 | 0.00 | 41 | 1021.8 |
| 20260906075735 | 87 | 186 | 0.0 | 0.0 | 0.00 | 0.00 | 0.00 | 38 | 941.1 |
| 20260906075511 | 87 | 161 | 0.0 | 0.0 | 0.00 | 0.00 | 0.00 | 36 | 1021.7 |
| 20260906075237 | 87 | 161 | 0.0 | 2.6 | 0.00 | 0.00 | 0.00 | 39 | 941.1 |
| 20260906074959 | 0 | 161 | 0.0 | 0.0 | 0.00 | 0.00 | 0.00 | 1021.6 | |
| 20260906074836 | 86 | 161 | 0.0 | 2.6 | 0.00 | 0.00 | 0.00 | 41 | 941.0 |
| 20260906074726 | 0 | 162 | 0.0 | 0.0 | 0.00 | 0.00 | 0.00 | 1021.5 | |
| 20260906074456 | 85 | 161 | 0.0 | 0.0 | 0.00 | 0.00 | 0.00 | 37 | 941.0 |
| 20260906074450 | 0 | 162 | 0.0 | 0.0 | 0.00 | 0.00 | 0.00 | 1021.5 | |
| 20260906074344 | 85 | 161 | 0.0 | 0.0 | 0.00 | 0.00 | 0.00 | 37 | 941.0 |
| 20260906073702 | 85 | 161 | 0.0 | 0.0 | 0.00 | 0.00 | 0.00 | 37 | 941.0 |
| 20260906073304 | 85 | 161 | 0.0 | 0.0 | 0.00 | 0.00 | 0.00 | 37 | 940.9 |
| 20260906072927 | 85 | 161 | 0.0 | 0.0 | 0.00 | 0.00 | 0.00 | 41 | 940.9 |
| 20260906072808 | 85 | 161 | 0.0 | 0.0 | 0.00 | 0.00 | 0.00 | 41 | 940.9 |
| 20260906072158 | 85 | 162 | 0.0 | 0.0 | 0.00 | 0.00 | 0.00 | 38 | 940.9 |
| 20260906071701 | 85 | 162 | 0.0 | 0.0 | 0.00 | 0.00 | 0.00 | 38 | 940.9 |
| 20260906071425 | 84 | 162 | 0.0 | 0.0 | 0.00 | 0.00 | 0.00 | 38 | 940.8 |
| 20260906071306 | 84 | 162 | 0.0 | 0.0 | 0.00 | 0.00 | 0.00 | 38 | 940.8 |
| 20260906070710 | 84 | 162 | 0.0 | 0.0 | 0.00 | 0.00 | 0.00 | 37 | 940.8 |
| 20260906070427 | 84 | 161 | 0.0 | 0.0 | 0.00 | 0.00 | 0.00 | 39 | 940.7 |
| 20260906070317 | 84 | 161 | 0.0 | 0.0 | 0.00 | 0.00 | 0.00 | 39 | 940.7 |
| 20260906065702 | 84 | 161 | 0.0 | 0.0 | 0.00 | 0.00 | 0.00 | 39 | 940.7 |
| 20260906065158 | 83 | 161 | 0.0 | 0.0 | 0.00 | 0.00 | 0.00 | 40 | 940.6 |
| 20260906064923 | 83 | 161 | 0.0 | 0.0 | 0.00 | 0.00 | 0.00 | 40 | 940.6 |
| 20260906064807 | 83 | 161 | 0.0 | 0.0 | 0.00 | 0.00 | 0.00 | 40 | 940.6 |
| 20260906064422 | 83 | 161 | 0.0 | 0.0 | 0.00 | 0.00 | 0.00 | 41 | 940.6 |
| 20260906064159 | 83 | 161 | 0.0 | 0.0 | 0.00 | 0.00 | 0.00 | 41 | 940.6 |
| 20260906063700 | 82 | 161 | 0.0 | 0.0 | 0.00 | 0.00 | 0.00 | 44 | 940.6 |
| 20260906063421 | 82 | 161 | 0.0 | 0.0 | 0.00 | 0.00 | 0.00 | 45 | 940.6 |
| 20260906063304 | 82 | 161 | 0.0 | 0.0 | 0.00 | 0.00 | 0.00 | 45 | 940.6 |
| 20260906062701 | 82 | 161 | 0.0 | 0.0 | 0.00 | 0.00 | 0.00 | 45 | 940.6 |
| 20260906062158 | 80 | 161 | 0.0 | 0.0 | 0.00 | 0.00 | 0.00 | 46 | 940.5 |
| 20260906061659 | 77 | 161 | 0.0 | 0.0 | 0.00 | 0.00 | 0.00 | 51 | 940.5 |
| 20260906061428 | 74 | 161 | 0.0 | 0.0 | 0.00 | 0.00 | 0.00 | 54 | 940.4 |
| 20260906061303 | 74 | 161 | 0.0 | 0.0 | 0.00 | 0.00 | 0.00 | 54 | 940.4 |
| 20260906060920 | 71 | 161 | 0.0 | 0.0 | 0.00 | 0.00 | 0.00 | 55 | 940.4 |
| 20260906060807 | 71 | 161 | 0.0 | 0.0 | 0.00 | 0.00 | 0.00 | 55 | 940.4 |
| 20260906060424 | 71 | 161 | 0.0 | 0.0 | 0.00 | 0.00 | 0.00 | 55 | 940.4 |
| 20260906060157 | 71 | 161 | 0.0 | 0.0 | 0.00 | 0.00 | 0.00 | 55 | 940.4 |
| 20260906055701 | 71 | 161 | 0.0 | 0.0 | 0.00 | 0.00 | 0.00 | 53 | 940.4 |
| 20260906055420 | 70 | 161 | 0.0 | 0.0 | 0.00 | 0.00 | 0.00 | 52 | 940.4 |
| 20260906055306 | 70 | 161 | 0.0 | 0.0 | 0.00 | 0.00 | 0.00 | 52 | 940.4 |
| 20260906054659 | 70 | 161 | 0.0 | 0.0 | 0.00 | 0.00 | 0.00 | 52 | 940.3 |
| 20260906054159 | 69 | 161 | 0.0 | 0.0 | 0.00 | 0.00 | 0.00 | 52 | 940.4 |
| 20260906053927 | 69 | 161 | 0.0 | 0.0 | 0.00 | 0.00 | 0.00 | 51 | 940.2 |
| 20260906053805 | 69 | 161 | 0.0 | 0.0 | 0.00 | 0.00 | 0.00 | 51 | 940.2 |
| 20260906053207 | 69 | 161 | 0.0 | 0.0 | 0.00 | 0.00 | 0.00 | 51 | 940.3 |
| 20260906052700 | 68 | 161 | 0.0 | 0.0 | 0.00 | 0.00 | 0.00 | 51 | 940.3 |
| 20260906052416 | 68 | 161 | 0.0 | 0.0 | 0.00 | 0.00 | 0.00 | 51 | 940.2 |
| 20260906052300 | 68 | 161 | 0.0 | 0.0 | 0.00 | 0.00 | 0.00 | 51 | 940.2 |
| 20260906051658 | 68 | 161 | 0.0 | 0.0 | 0.00 | 0.00 | 0.00 | 53 | 940.2 |
| 20260906051158 | 68 | 159 | 0.0 | 0.0 | 0.00 | 0.00 | 0.00 | 54 | 940.2 |
| 20260906050658 | 67 | 161 | 0.0 | 0.0 | 0.00 | 0.00 | 0.00 | 55 | 940.2 |
| 20260906050156 | 67 | 161 | 0.0 | 0.0 | 0.00 | 0.00 | 0.00 | 55 | 940.2 |
| 20260906045659 | 67 | 161 | 0.0 | 0.0 | 0.00 | 0.00 | 0.00 | 56 | 940.2 |
| 20260906045156 | 67 | 161 | 0.0 | 0.0 | 0.00 | 0.00 | 0.00 | 56 | 940.2 |
| 20260906044659 | 67 | 161 | 0.0 | 0.0 | 0.00 | 0.00 | 0.00 | 57 | 940.2 |
| 20260906044411 | 67 | 161 | 0.0 | 0.0 | 0.00 | 0.00 | 0.00 | 58 | 940.2 |
| 20260906044301 | 67 | 161 | 0.0 | 0.0 | 0.00 | 0.00 | 0.00 | 58 | 940.2 |
| 20260906043656 | 67 | 162 | 0.0 | 0.0 | 0.00 | 0.00 | 0.00 | 57 | 940.2 |
| 20260906043209 | 67 | 162 | 0.0 | 0.0 | 0.00 | 0.00 | 0.00 | 56 | 940.2 |
| 20260906042658 | 67 | 161 | 0.0 | 0.0 | 0.00 | 0.00 | 0.00 | 56 | 940.1 |
| 20260906042155 | 67 | 161 | 0.0 | 0.0 | 0.00 | 0.00 | 0.00 | 56 | 940.0 |
| 20260906041658 | 67 | 161 | 0.0 | 0.0 | 0.00 | 0.00 | 0.00 | 56 | 940.1 |
| 20260906041157 | 68 | 161 | 0.0 | 0.0 | 0.00 | 0.00 | 0.00 | 55 | 940.0 |
| 20260906040921 | 68 | 161 | 0.0 | 0.0 | 0.00 | 0.00 | 0.00 | 54 | 940.0 |
| 20260906040657 | 68 | 161 | 0.0 | 0.0 | 0.00 | 0.00 | 0.00 | 54 | 940.0 |
| 20260906040155 | 68 | 161 | 0.0 | 0.0 | 0.00 | 0.00 | 0.00 | 53 | 940.0 |
| 20260906035659 | 68 | 161 | 0.0 | 0.0 | 0.00 | 0.00 | 0.00 | 53 | 940.0 |
| 20260906035154 | 69 | 161 | 0.0 | 0.0 | 0.00 | 0.00 | 0.00 | 51 | 940.0 |
| 20260906034658 | 69 | 161 | 0.0 | 0.0 | 0.00 | 0.00 | 0.00 | 50 | 939.9 |
| 20260906034156 | 69 | 161 | 0.0 | 0.0 | 0.00 | 0.00 | 0.00 | 49 | 939.8 |
| 20260906033657 | 69 | 161 | 0.0 | 0.0 | 0.00 | 0.00 | 0.00 | 48 | 939.8 |
| 20260906033418 | 68 | 161 | 0.0 | 0.0 | 0.00 | 0.00 | 0.00 | 49 | 939.9 |
| 20260906033258 | 68 | 161 | 0.0 | 0.0 | 0.00 | 0.00 | 0.00 | 49 | 939.9 |
| 20260906032658 | 68 | 162 | 0.0 | 0.0 | 0.00 | 0.00 | 0.00 | 49 | 939.9 |
| 20260906032152 | 68 | 161 | 0.0 | 0.0 | 0.00 | 0.00 | 0.00 | 50 | 939.9 |
| 20260906031656 | 68 | 161 | 0.0 | 0.0 | 0.00 | 0.00 | 0.00 | 52 | 939.9 |
| 20260906031415 | 68 | 161 | 0.0 | 0.0 | 0.00 | 0.00 | 0.00 | 55 | 939.9 |
| 20260906031301 | 68 | 161 | 0.0 | 0.0 | 0.00 | 0.00 | 0.00 | 55 | 939.9 |
| 20260906030656 | 68 | 161 | 0.0 | 0.0 | 0.00 | 0.00 | 0.00 | 55 | 939.9 |
| 20260906030152 | 68 | 161 | 0.0 | 0.0 | 0.00 | 0.00 | 0.00 | 57 | 939.9 |
| 20260906025656 | 68 | 161 | 0.0 | 0.0 | 0.00 | 0.00 | 0.00 | 59 | 939.9 |
| 20260906025152 | 68 | 161 | 0.0 | 0.0 | 0.00 | 0.00 | 0.00 | 60 | 939.9 |
| 20260906024803 | 68 | 161 | 0.0 | 0.0 | 0.00 | 0.00 | 0.00 | 60 | 939.9 |
| 20260906024153 | 68 | 161 | 0.0 | 0.0 | 0.00 | 0.00 | 0.00 | 60 | 939.9 |
| 20260906023656 | 68 | 161 | 0.0 | 0.0 | 0.00 | 0.00 | 0.00 | 60 | 939.9 |
| 20260906023413 | 68 | 161 | 0.0 | 0.0 | 0.00 | 0.00 | 0.00 | 59 | 939.9 |
| 20260906023258 | 68 | 161 | 0.0 | 0.0 | 0.00 | 0.00 | 0.00 | 59 | 939.9 |
| 20260906022657 | 68 | 161 | 0.0 | 0.0 | 0.00 | 0.00 | 0.00 | 60 | 939.9 |
| 20260906022151 | 68 | 162 | 0.0 | 0.0 | 0.00 | 0.00 | 0.00 | 60 | 940.0 |
| 20260906021658 | 68 | 161 | 0.0 | 0.0 | 0.00 | 0.00 | 0.00 | 60 | 940.0 |
| 20260906021647 | 68 | 161 | 0.0 | 0.0 | 0.00 | 0.00 | 0.00 | 59 | 940.0 |
| 20260906021153 | 68 | 161 | 0.0 | 0.0 | 0.00 | 0.00 | 0.00 | 59 | 940.0 |
| 20260906020655 | 68 | 161 | 0.0 | 0.0 | 0.00 | 0.00 | 0.00 | 59 | 940.0 |
| 20260906020152 | 68 | 162 | 0.0 | 0.0 | 0.00 | 0.00 | 0.00 | 58 | 940.1 |
| 20260906015929 | 68 | 161 | 0.0 | 0.0 | 0.00 | 0.00 | 0.00 | 58 | 940.1 |
| 20260906015655 | 68 | 161 | 0.0 | 0.0 | 0.00 | 0.00 | 0.00 | 58 | 940.1 |
| 20260906015643 | 68 | 162 | 0.0 | 0.0 | 0.00 | 0.00 | 0.00 | 59 | 940.1 |
| 20260906015152 | 68 | 162 | 0.0 | 0.0 | 0.00 | 0.00 | 0.00 | 59 | 940.1 |
| 20260906014652 | 68 | 161 | 0.0 | 0.0 | 0.00 | 0.00 | 0.00 | 59 | 940.2 |
| 20260906014152 | 67 | 161 | 0.0 | 0.0 | 0.00 | 0.00 | 0.00 | 59 | 940.2 |
| 20260906013654 | 67 | 161 | 0.0 | 0.0 | 0.00 | 0.00 | 0.00 | 60 | 940.2 |
| 20260906013151 | 67 | 161 | 0.0 | 0.0 | 0.00 | 0.00 | 0.00 | 60 | 940.3 |
| 20260906012655 | 67 | 161 | 0.0 | 0.0 | 0.00 | 0.00 | 0.00 | 60 | 940.2 |
| 20260906012152 | 67 | 162 | 0.0 | 0.0 | 0.00 | 0.00 | 0.00 | 60 | 940.3 |
| 20260906011654 | 67 | 161 | 0.0 | 0.0 | 0.00 | 0.00 | 0.00 | 59 | 940.2 |
| 20260906011152 | 67 | 161 | 0.0 | 0.0 | 0.00 | 0.00 | 0.00 | 59 | 940.3 |
| 20260906010918 | 68 | 161 | 0.0 | 0.0 | 0.00 | 0.00 | 0.00 | 59 | 940.2 |
| 20260906010801 | 68 | 161 | 0.0 | 0.0 | 0.00 | 0.00 | 0.00 | 59 | 940.2 |
| 20260906010523 | 68 | 161 | 0.0 | 0.0 | 0.00 | 0.00 | 0.00 | 58 | 940.3 |
| 20260906010417 | 68 | 161 | 0.0 | 0.0 | 0.00 | 0.00 | 0.00 | 58 | 940.3 |
| 20260906005655 | 68 | 161 | 0.0 | 0.0 | 0.00 | 0.00 | 0.00 | 58 | 940.3 |
| 20260906005410 | 68 | 161 | 0.0 | 0.0 | 0.00 | 0.00 | 0.00 | 57 | 940.3 |
| 20260906005254 | 68 | 161 | 0.0 | 0.0 | 0.00 | 0.00 | 0.00 | 57 | 940.3 |
| 20260906004652 | 68 | 161 | 0.0 | 0.0 | 0.00 | 0.00 | 0.00 | 57 | 940.3 |
| 20260906004152 | 68 | 161 | 0.0 | 0.0 | 0.00 | 0.00 | 0.00 | 57 | 940.2 |
| 20260906003653 | 68 | 161 | 0.0 | 0.0 | 0.00 | 0.00 | 0.00 | 57 | 940.2 |
| 20260906003150 | 68 | 161 | 0.0 | 0.0 | 0.00 | 0.00 | 0.00 | 57 | 940.3 |
| 20260906002654 | 68 | 161 | 0.0 | 0.0 | 0.00 | 0.00 | 0.00 | 57 | 940.2 |
| 20260906002416 | 68 | 162 | 0.0 | 0.0 | 0.00 | 0.00 | 0.00 | 57 | 940.2 |
| 20260906002254 | 68 | 162 | 0.0 | 0.0 | 0.00 | 0.00 | 0.00 | 57 | 940.2 |
| 20260906001919 | 69 | 161 | 0.0 | 0.0 | 0.00 | 0.00 | 0.00 | 57 | 940.2 |
| 20260906001652 | 69 | 161 | 0.0 | 0.0 | 0.00 | 0.00 | 0.00 | 57 | 940.2 |
| 20260906001150 | 69 | 161 | 0.0 | 0.0 | 0.00 | 0.00 | 0.00 | 58 | 940.2 |
| 20260906000652 | 69 | 161 | 0.0 | 0.0 | 0.00 | 0.00 | 0.00 | 58 | 940.3 |
| 20260906000411 | 69 | 161 | 0.0 | 0.0 | 0.00 | 0.00 | 0.00 | 58 | 940.2 |
| 20260906000256 | 69 | 161 | 0.0 | 0.0 | 0.00 | 0.00 | 0.00 | 58 | 940.2 |
| 20260905235922 | 69 | 161 | 0.0 | 0.0 | 0.00 | 0.00 | 0.00 | 57 | 940.3 |
| 20260905235653 | 69 | 161 | 0.0 | 0.0 | 0.00 | 0.00 | 0.00 | 57 | 940.3 |
| 20260905235149 | 69 | 161 | 0.0 | 0.0 | 0.00 | 0.00 | 0.00 | 57 | 940.4 |
| 20260905234919 | 70 | 161 | 0.0 | 0.0 | 0.00 | 0.00 | 0.00 | 57 | 940.4 |
| 20260905234651 | 70 | 161 | 0.0 | 0.0 | 0.00 | 0.00 | 0.00 | 57 | 940.4 |
| 20260905234150 | 70 | 161 | 0.0 | 0.0 | 0.00 | 0.00 | 0.00 | 57 | 940.5 |
| 20260905233758 | 70 | 161 | 0.0 | 0.0 | 0.00 | 0.00 | 0.00 | 57 | 940.5 |
| 20260905233147 | 71 | 161 | 0.0 | 0.0 | 0.00 | 0.00 | 0.00 | 57 | 940.4 |
| 20260905232652 | 71 | 161 | 0.0 | 0.0 | 0.00 | 0.00 | 0.00 | 57 | 940.5 |
| 20260905232148 | 71 | 161 | 0.0 | 0.0 | 0.00 | 0.00 | 0.00 | 57 | 940.5 |
| 20260905231650 | 71 | 161 | 0.0 | 0.0 | 0.00 | 0.00 | 0.00 | 57 | 940.5 |
| 20260905231410 | 72 | 161 | 0.0 | 0.0 | 0.00 | 0.00 | 0.00 | 57 | 940.6 |
| 20260905231255 | 72 | 161 | 0.0 | 0.0 | 0.00 | 0.00 | 0.00 | 57 | 940.6 |
| 20260905230921 | 72 | 161 | 0.0 | 0.0 | 0.00 | 0.00 | 0.00 | 57 | 940.5 |
| 20260905230651 | 72 | 161 | 0.0 | 0.0 | 0.00 | 0.00 | 0.00 | 57 | 940.5 |
| 20260905230150 | 72 | 162 | 0.0 | 0.0 | 0.00 | 0.00 | 0.00 | 57 | 940.5 |
| 20260905230142 | 72 | 161 | 0.0 | 0.0 | 0.00 | 0.00 | 0.00 | 58 | 940.5 |
| 20260905225652 | 72 | 161 | 0.0 | 0.0 | 0.00 | 0.00 | 0.00 | 58 | 940.5 |
| 20260905225148 | 72 | 161 | 0.0 | 0.0 | 0.00 | 0.00 | 0.00 | 59 | 940.6 |
| 20260905224650 | 72 | 161 | 0.0 | 0.0 | 0.00 | 0.00 | 0.00 | 59 | 940.6 |
| 20260905224149 | 72 | 161 | 0.0 | 0.0 | 0.00 | 0.00 | 0.00 | 60 | 940.7 |
| 20260905223650 | 72 | 164 | 0.0 | 0.0 | 0.00 | 0.00 | 0.00 | 60 | 940.7 |
| 20260905223411 | 72 | 161 | 0.0 | 0.0 | 0.00 | 0.00 | 0.00 | 60 | 940.6 |
| 20260905223147 | 72 | 161 | 0.0 | 0.0 | 0.00 | 0.00 | 0.00 | 60 | 940.6 |
| 20260905222931 | 73 | 161 | 0.0 | 0.0 | 0.00 | 0.00 | 0.00 | 60 | 940.6 |
| 20260905222652 | 73 | 161 | 0.0 | 0.0 | 0.00 | 0.00 | 0.00 | 60 | 940.6 |
| 20260905222147 | 73 | 161 | 0.0 | 0.0 | 0.00 | 0.00 | 0.00 | 59 | 940.6 |
| 20260905221915 | 73 | 161 | 0.0 | 0.0 | 0.00 | 0.00 | 0.00 | 60 | 940.7 |
| 20260905221757 | 73 | 161 | 0.0 | 0.0 | 0.00 | 0.00 | 0.00 | 60 | 940.7 |
| 20260905221147 | 73 | 161 | 0.0 | 0.0 | 0.00 | 0.00 | 0.00 | 60 | 940.6 |
| 20260905220648 | 73 | 161 | 0.0 | 0.0 | 0.00 | 0.00 | 0.00 | 60 | 940.6 |
| 20260905220147 | 73 | 161 | 0.0 | 0.0 | 0.00 | 0.00 | 0.00 | 59 | 940.6 |
| 20260905215921 | 73 | 161 | 0.0 | 0.0 | 0.00 | 0.00 | 0.00 | 59 | 940.7 |
| 20260905215650 | 73 | 161 | 0.0 | 0.0 | 0.00 | 0.00 | 0.00 | 59 | 940.7 |
| 20260905215147 | 73 | 162 | 0.0 | 0.0 | 0.00 | 0.00 | 0.00 | 59 | 940.7 |
| 20260905214649 | 73 | 162 | 0.0 | 0.0 | 0.00 | 0.00 | 0.00 | 59 | 940.7 |
| 20260905214148 | 73 | 161 | 0.0 | 0.0 | 0.00 | 0.00 | 0.00 | 59 | 940.7 |
| 20260905213649 | 73 | 161 | 0.0 | 0.0 | 0.00 | 0.00 | 0.00 | 59 | 940.7 |
| 20260905213146 | 73 | 161 | 0.0 | 0.0 | 0.00 | 0.00 | 0.00 | 59 | 940.6 |
| 20260905212649 | 73 | 161 | 0.0 | 0.0 | 0.00 | 0.00 | 0.00 | 59 | 940.6 |
| 20260905212510 | 73 | 161 | 0.0 | 0.0 | 0.00 | 0.00 | 0.00 | 59 | 940.6 |
| 20260905212410 | 73 | 161 | 0.0 | 0.0 | 0.00 | 0.00 | 0.00 | 59 | 940.6 |
| 20260905211915 | 73 | 161 | 0.0 | 0.0 | 0.00 | 0.00 | 0.00 | 58 | 940.6 |
| 20260905211756 | 73 | 161 | 0.0 | 0.0 | 0.00 | 0.00 | 0.00 | 58 | 940.6 |
| 20260905211146 | 73 | 161 | 0.0 | 0.0 | 0.00 | 0.00 | 0.00 | 59 | 940.7 |
| 20260905210755 | 74 | 161 | 0.0 | 0.0 | 0.00 | 0.00 | 0.00 | 59 | 940.7 |
| 20260905210252 | 74 | 161 | 0.0 | 0.0 | 0.00 | 0.00 | 0.00 | 58 | 940.7 |
| 20260905205920 | 74 | 161 | 0.0 | 0.0 | 0.00 | 0.00 | 0.00 | 58 | 940.6 |
| 20260905205757 | 74 | 161 | 0.0 | 0.0 | 0.00 | 0.00 | 0.00 | 58 | 940.6 |
| 20260905205413 | 74 | 162 | 0.0 | 0.0 | 0.00 | 0.00 | 0.00 | 58 | 940.6 |
| 20260905205145 | 74 | 162 | 0.0 | 0.0 | 0.00 | 0.00 | 0.00 | 58 | 940.6 |
| 20260905204906 | 74 | 161 | 0.0 | 0.0 | 0.00 | 0.00 | 0.00 | 58 | 940.7 |
| 20260905204755 | 74 | 161 | 0.0 | 0.0 | 0.00 | 0.00 | 0.00 | 58 | 940.7 |
| 20260905204147 | 74 | 159 | 0.0 | 0.0 | 0.00 | 0.00 | 0.00 | 57 | 940.7 |
| 20260905203647 | 74 | 161 | 0.0 | 0.0 | 0.00 | 0.00 | 0.00 | 57 | 940.7 |
| 20260905203144 | 74 | 161 | 0.0 | 0.0 | 0.00 | 0.00 | 0.00 | 57 | 940.7 |
| 20260905202648 | 74 | 162 | 0.0 | 0.0 | 0.00 | 0.00 | 0.00 | 57 | 940.8 |
| 20260905202145 | 74 | 162 | 0.0 | 0.0 | 0.00 | 0.00 | 0.00 | 57 | 940.8 |
| 20260905201648 | 74 | 161 | 0.0 | 0.0 | 0.00 | 0.00 | 0.00 | 57 | 940.8 |
| 20260905201147 | 75 | 161 | 0.0 | 0.0 | 0.00 | 0.00 | 0.00 | 56 | 940.8 |
| 20260905200647 | 75 | 161 | 0.0 | 0.0 | 0.00 | 0.00 | 0.00 | 56 | 940.9 |
| 20260905200144 | 75 | 161 | 0.0 | 0.0 | 0.00 | 0.00 | 0.00 | 56 | 940.9 |
| 20260905195649 | 75 | 161 | 0.0 | 0.0 | 0.00 | 0.00 | 0.00 | 56 | 940.9 |
| 20260905195143 | 75 | 161 | 0.0 | 0.0 | 0.00 | 0.00 | 0.00 | 56 | 940.9 |
| 20260905194915 | 75 | 161 | 0.0 | 0.0 | 0.00 | 0.00 | 0.00 | 56 | 941.1 |
| 20260905194755 | 75 | 161 | 0.0 | 0.0 | 0.00 | 0.00 | 0.00 | 56 | 941.1 |
| 20260905194145 | 75 | 161 | 0.0 | 0.0 | 0.00 | 0.00 | 0.00 | 57 | 940.9 |
| 20260905193754 | 75 | 162 | 0.0 | 0.0 | 0.00 | 0.00 | 0.00 | 57 | 940.9 |
| 20260905193632 | 75 | 161 | 0.0 | 0.0 | 0.00 | 0.00 | 0.00 | 57 | 940.9 |
| 20260905193143 | 75 | 161 | 0.0 | 0.0 | 0.00 | 0.00 | 0.00 | 57 | 940.9 |
| 20260905192648 | 75 | 161 | 0.0 | 0.0 | 0.00 | 0.00 | 0.00 | 57 | 941.0 |
| 20260905192144 | 75 | 161 | 0.0 | 0.0 | 0.00 | 0.00 | 0.00 | 57 | 940.8 |
| 20260905191646 | 75 | 161 | 0.0 | 0.0 | 0.00 | 0.00 | 0.00 | 57 | 940.7 |
| 20260905191145 | 75 | 161 | 0.0 | 0.0 | 0.00 | 0.00 | 0.00 | 57 | 940.7 |
| 20260905190923 | 75 | 161 | 0.0 | 0.0 | 0.00 | 0.00 | 0.00 | 58 | 940.6 |
| 20260905190658 | 75 | 161 | 0.0 | 0.0 | 0.00 | 0.00 | 0.00 | 58 | 940.6 |
| 20260905190142 | 75 | 161 | 0.0 | 0.0 | 0.00 | 0.00 | 0.00 | 58 | 940.7 |
| 20260905185919 | 75 | 161 | 0.0 | 0.0 | 0.00 | 0.00 | 0.00 | 58 | 940.6 |
| 20260905185800 | 75 | 161 | 0.0 | 0.0 | 0.00 | 0.00 | 0.00 | 58 | 940.6 |
| 20260905185248 | 75 | 161 | 0.0 | 0.0 | 0.00 | 0.00 | 0.00 | 58 | 940.5 |
| 20260905184644 | 75 | 161 | 0.0 | 0.0 | 0.00 | 0.00 | 0.00 | 58 | 940.3 |
| 20260905184145 | 75 | 161 | 0.0 | 0.0 | 0.00 | 0.00 | 0.00 | 59 | 940.4 |
| 20260905183645 | 75 | 159 | 0.0 | 0.0 | 0.00 | 0.00 | 0.00 | 59 | 940.4 |
| 20260905183142 | 75 | 161 | 0.0 | 0.0 | 0.00 | 0.00 | 0.00 | 59 | 940.3 |
| 20260905182647 | 75 | 162 | 0.0 | 0.0 | 0.00 | 0.00 | 0.00 | 60 | 940.4 |
| 20260905182143 | 75 | 161 | 0.0 | 0.0 | 0.00 | 0.00 | 0.00 | 61 | 940.4 |
| 20260905181645 | 76 | 161 | 0.0 | 0.0 | 0.00 | 0.00 | 0.00 | 61 | 940.3 |
| 20260905181144 | 76 | 161 | 0.0 | 0.0 | 0.00 | 0.00 | 0.00 | 61 | 940.3 |
| 20260905180917 | 76 | 161 | 0.0 | 0.0 | 0.00 | 0.00 | 0.00 | 61 | 940.3 |
| 20260905180646 | 76 | 161 | 0.0 | 0.0 | 0.00 | 0.00 | 0.00 | 61 | 940.3 |
| 20260905180142 | 77 | 161 | 0.0 | 0.0 | 0.00 | 0.00 | 0.00 | 60 | 940.3 |
| 20260905175646 | 77 | 161 | 0.0 | 0.0 | 0.00 | 0.00 | 0.00 | 60 | 940.2 |
| 20260905175405 | 77 | 161 | 0.0 | 0.0 | 0.00 | 0.00 | 0.00 | 59 | 940.2 |
| 20260905174644 | 77 | 161 | 0.0 | 0.0 | 0.00 | 0.00 | 0.00 | 58 | 940.1 |
| 20260905174142 | 78 | 162 | 0.0 | 0.0 | 0.00 | 0.00 | 0.00 | 58 | 940.1 |
| 20260905173750 | 78 | 161 | 0.0 | 0.0 | 0.00 | 0.00 | 0.00 | 58 | 940.2 |
| 20260905173423 | 79 | 161 | 0.0 | 0.0 | 0.00 | 0.00 | 0.00 | 58 | 940.3 |
| 20260905173153 | 79 | 161 | 0.0 | 0.0 | 0.00 | 0.00 | 0.00 | 58 | 940.3 |
| 20260905172913 | 79 | 162 | 0.0 | 0.0 | 0.00 | 0.00 | 0.00 | 57 | 940.1 |
| 20260905172752 | 79 | 162 | 0.0 | 0.0 | 0.00 | 0.00 | 0.00 | 57 | 940.1 |
| 20260905172401 | 79 | 161 | 0.0 | 0.0 | 0.00 | 0.00 | 0.00 | 56 | 940.1 |
| 20260905172246 | 79 | 161 | 0.0 | 0.0 | 0.00 | 0.00 | 0.00 | 56 | 940.1 |
| 20260905171648 | 80 | 161 | 0.0 | 0.0 | 0.00 | 0.00 | 0.00 | 55 | 940.1 |
| 20260905171413 | 80 | 161 | 0.0 | 0.0 | 0.00 | 0.00 | 0.00 | 54 | 940.2 |
| 20260905171142 | 80 | 161 | 0.0 | 0.0 | 0.00 | 0.00 | 0.00 | 54 | 940.2 |
| 20260905170642 | 80 | 161 | 0.0 | 0.0 | 0.00 | 0.00 | 0.00 | 52 | 940.2 |
| 20260905170154 | 81 | 161 | 0.0 | 0.0 | 0.00 | 0.00 | 0.00 | 51 | 940.3 |
| 20260905170013 | 81 | 161 | 0.0 | 0.0 | 0.00 | 0.00 | 0.00 | 51 | 940.3 |
| 20260905165909 | 81 | 161 | 0.0 | 0.0 | 0.00 | 0.00 | 0.00 | 51 | 940.3 |
| 20260905165141 | 81 | 161 | 0.0 | 0.0 | 0.00 | 0.00 | 0.00 | 51 | 940.3 |
| 20260905164644 | 82 | 161 | 0.0 | 0.0 | 0.00 | 0.00 | 0.00 | 51 | 940.3 |
| 20260905164140 | 82 | 161 | 0.0 | 0.0 | 0.00 | 0.00 | 0.00 | 50 | 940.2 |
| 20260905163913 | 82 | 161 | 0.0 | 0.0 | 0.00 | 0.00 | 0.00 | 50 | 940.2 |
| 20260905163644 | 82 | 161 | 0.0 | 0.0 | 0.00 | 0.00 | 0.00 | 50 | 940.2 |
| 20260905163403 | 83 | 162 | 0.0 | 0.0 | 0.00 | 0.00 | 0.00 | 50 | 940.2 |
| 20260905163140 | 83 | 162 | 0.0 | 0.0 | 0.00 | 0.00 | 0.00 | 50 | 940.2 |
| 20260905162646 | 83 | 161 | 0.0 | 0.0 | 0.00 | 0.00 | 0.00 | 50 | 940.0 |
| 20260905162140 | 84 | 161 | 0.0 | 0.0 | 0.00 | 0.00 | 0.00 | 49 | 940.2 |
| 20260905161644 | 85 | 162 | 0.0 | 0.0 | 0.00 | 0.00 | 0.00 | 49 | 940.1 |
| 20260905161141 | 85 | 161 | 0.0 | 0.0 | 0.00 | 0.00 | 0.00 | 49 | 940.0 |
| 20260905160641 | 85 | 161 | 0.0 | 0.0 | 0.00 | 0.00 | 0.00 | 49 | 940.1 |
| 20260905160402 | 85 | 161 | 0.0 | 0.0 | 0.00 | 0.00 | 0.00 | 49 | 940.1 |
| 20260905160138 | 85 | 161 | 0.0 | 0.0 | 0.00 | 0.00 | 0.00 | 49 | 940.1 |
| 20260905155644 | 86 | 162 | 0.0 | 0.0 | 0.00 | 0.00 | 0.00 | 49 | 940.1 |
| 20260905155412 | 86 | 148 | 0.0 | 0.0 | 0.00 | 0.00 | 0.00 | 50 | 940.1 |
| 20260905155140 | 86 | 148 | 0.0 | 0.0 | 0.00 | 0.00 | 0.00 | 50 | 940.1 |
| 20260905154641 | 86 | 18 | 0.0 | 0.0 | 0.00 | 0.00 | 0.00 | 51 | 940.2 |
| 20260905154140 | 86 | 25 | 0.0 | 0.0 | 0.00 | 0.00 | 0.00 | 51 | 940.1 |
| 20260905153642 | 86 | 27 | 0.0 | 0.0 | 0.00 | 0.00 | 0.00 | 51 | 940.2 |
| 20260905153138 | 86 | 69 | 0.0 | 0.0 | 0.00 | 0.00 | 0.00 | 51 | 940.1 |
| 20260905152643 | 86 | 66 | 0.0 | 0.0 | 0.00 | 0.00 | 0.00 | 50 | 940.2 |
| 20260905152138 | 86 | 6 | 0.0 | 0.0 | 0.00 | 0.00 | 0.00 | 50 | 940.2 |
| 20260905151641 | 87 | 350 | 0.0 | 0.9 | 0.00 | 0.00 | 0.00 | 49 | 940.1 |
| 20260905151139 | 87 | 245 | 0.0 | 0.9 | 0.00 | 0.00 | 0.00 | 48 | 940.1 |
| 20260905150640 | 87 | 186 | 0.0 | 0.0 | 0.00 | 0.00 | 0.00 | 48 | 940.0 |
| 20260905150357 | 87 | 14 | 0.0 | 0.0 | 0.00 | 0.00 | 0.00 | 48 | 940.1 |
| 20260905150244 | 87 | 14 | 0.0 | 0.0 | 0.00 | 0.00 | 0.00 | 48 | 940.1 |
| 20260905145642 | 87 | 31 | 0.0 | 0.0 | 0.00 | 0.00 | 0.00 | 49 | 940.0 |
| 20260905145139 | 86 | 45 | 0.0 | 0.0 | 0.00 | 0.00 | 0.00 | 48 | 940.0 |
| 20260905144640 | 88 | 171 | 0.0 | 0.0 | 0.00 | 0.00 | 0.00 | 46 | 940.1 |
| 20260905144139 | 88 | 214 | 0.0 | 0.0 | 0.00 | 0.00 | 0.00 | 46 | 940.0 |
| 20260905143902 | 89 | 48 | 0.0 | 0.0 | 0.00 | 0.00 | 0.00 | 45 | 940.0 |
| 20260905143748 | 89 | 48 | 0.0 | 0.0 | 0.00 | 0.00 | 0.00 | 45 | 940.0 |
| 20260905143136 | 90 | 47 | 0.0 | 0.0 | 0.00 | 0.00 | 0.00 | 45 | 940.0 |
| 20260905142910 | 90 | 176 | 0.0 | 0.0 | 0.00 | 0.00 | 0.00 | 43 | 939.9 |
| 20260905142749 | 90 | 176 | 0.0 | 0.0 | 0.00 | 0.00 | 0.00 | 43 | 939.9 |
| 20260905142137 | 91 | 71 | 0.0 | 0.0 | 0.00 | 0.00 | 0.00 | 42 | 940.0 |
| 20260905141639 | 91 | 63 | 0.0 | 0.0 | 0.00 | 0.00 | 0.00 | 43 | 940.0 |
| 20260905141403 | 91 | 114 | 0.0 | 0.0 | 0.00 | 0.00 | 0.00 | 42 | 939.9 |
| 20260905141138 | 91 | 114 | 0.0 | 0.0 | 0.00 | 0.00 | 0.00 | 42 | 939.9 |
| 20260905140640 | 91 | 0 | 0.0 | 0.9 | 0.00 | 0.00 | 0.00 | 44 | 940.0 |
| 20260905140359 | 91 | 350 | 0.0 | 0.9 | 0.00 | 0.00 | 0.00 | 43 | 939.9 |
| 20260905140242 | 91 | 350 | 0.0 | 0.9 | 0.00 | 0.00 | 0.00 | 43 | 939.9 |
| 20260905135639 | 91 | 86 | 0.0 | 0.0 | 0.00 | 0.00 | 0.00 | 41 | 940.0 |
| 20260905135410 | 91 | 196 | 0.0 | 0.0 | 0.00 | 0.00 | 0.00 | 43 | 940.0 |
| 20260905135255 | 91 | 196 | 0.0 | 0.0 | 0.00 | 0.00 | 0.00 | 43 | 940.0 |
| 20260905134639 | 91 | 58 | 0.0 | 0.0 | 0.00 | 0.00 | 0.00 | 41 | 939.9 |
| 20260905134138 | 91 | 185 | 0.0 | 0.0 | 0.00 | 0.00 | 0.00 | 42 | 939.9 |
| 20260905133639 | 91 | 47 | 0.0 | 0.0 | 0.00 | 0.00 | 0.00 | 44 | 940.1 |
| 20260905133401 | 89 | 89 | 0.0 | 0.0 | 0.00 | 0.00 | 0.00 | 45 | 940.0 |
| 20260905133242 | 89 | 89 | 0.0 | 0.0 | 0.00 | 0.00 | 0.00 | 45 | 940.0 |
| 20260905132902 | 90 | 39 | 0.0 | 0.0 | 0.00 | 0.00 | 0.00 | 42 | 940.1 |
| 20260905132748 | 90 | 39 | 0.0 | 0.0 | 0.00 | 0.00 | 0.00 | 42 | 940.1 |
| 20260905132148 | 91 | 44 | 0.0 | 0.0 | 0.00 | 0.00 | 0.00 | 42 | 940.1 |
| 20260905131637 | 90 | 237 | 0.0 | 0.0 | 0.00 | 0.00 | 0.00 | 42 | 940.1 |
| 20260905131150 | 91 | 45 | 0.0 | 0.0 | 0.00 | 0.00 | 0.00 | 40 | 940.2 |
| 20260905130905 | 90 | 195 | 0.0 | 0.0 | 0.00 | 0.00 | 0.00 | 40 | 940.2 |
| 20260905130747 | 90 | 195 | 0.0 | 0.0 | 0.00 | 0.00 | 0.00 | 40 | 940.2 |
| 20260905130415 | 90 | 210 | 0.0 | 4.3 | 0.00 | 0.00 | 0.00 | 40 | 940.2 |
| 20260905130138 | 90 | 210 | 0.0 | 4.3 | 0.00 | 0.00 | 0.00 | 40 | 940.2 |
| 20260905125639 | 89 | 299 | 0.0 | 4.3 | 0.00 | 0.00 | 0.00 | 41 | 940.2 |
| 20260905125135 | 90 | 157 | 0.0 | 0.0 | 0.00 | 0.00 | 0.00 | 40 | 940.3 |
| 20260905124907 | 90 | 183 | 0.0 | 0.9 | 0.00 | 0.00 | 0.00 | 42 | 940.3 |
| 20260905124747 | 90 | 183 | 0.0 | 0.9 | 0.00 | 0.00 | 0.00 | 42 | 940.3 |
| 20260905124242 | 89 | 65 | 0.0 | 0.9 | 0.00 | 0.00 | 0.00 | 44 | 940.3 |
| 20260905123901 | 88 | 247 | 0.0 | 0.0 | 0.00 | 0.00 | 0.00 | 44 | 940.4 |
| 20260905123638 | 88 | 247 | 0.0 | 0.0 | 0.00 | 0.00 | 0.00 | 44 | 940.4 |
| 20260905123135 | 89 | 188 | 0.0 | 0.0 | 0.00 | 0.00 | 0.00 | 41 | 940.5 |
| 20260905122638 | 90 | 49 | 0.0 | 0.0 | 0.00 | 0.00 | 0.00 | 42 | 940.5 |
| 20260905122133 | 90 | 221 | 0.0 | 0.0 | 0.00 | 0.00 | 0.00 | 43 | 940.5 |
| 20260905121635 | 89 | 289 | 0.0 | 0.9 | 0.00 | 0.00 | 0.00 | 43 | 940.4 |
| 20260905121136 | 89 | 25 | 0.0 | 0.9 | 0.00 | 0.00 | 0.00 | 44 | 940.6 |
| 20260905120637 | 88 | 175 | 0.0 | 0.0 | 0.00 | 0.00 | 0.00 | 45 | 940.6 |
| 20260905120134 | 89 | 179 | 0.0 | 0.0 | 0.00 | 0.00 | 0.00 | 45 | 940.6 |
| 20260905115636 | 90 | 209 | 0.0 | 0.0 | 0.00 | 0.00 | 0.00 | 44 | 940.6 |
| 20260905115134 | 89 | 190 | 0.0 | 0.0 | 0.00 | 0.00 | 0.00 | 43 | 940.6 |
| 20260905114901 | 89 | 217 | 0.0 | 0.0 | 0.00 | 0.00 | 0.00 | 42 | 940.6 |
| 20260905114744 | 89 | 217 | 0.0 | 0.0 | 0.00 | 0.00 | 0.00 | 42 | 940.6 |
| 20260905114135 | 89 | 176 | 0.0 | 0.0 | 0.00 | 0.00 | 0.00 | 45 | 940.7 |
| 20260905113636 | 89 | 265 | 0.0 | 1.7 | 0.00 | 0.00 | 0.00 | 46 | 940.7 |
| 20260905113349 | 89 | 180 | 0.0 | 1.7 | 0.00 | 0.00 | 0.00 | 45 | 940.6 |
| 20260905113239 | 89 | 180 | 0.0 | 1.7 | 0.00 | 0.00 | 0.00 | 45 | 940.6 |
| 20260905112636 | 88 | 228 | 0.0 | 0.0 | 0.00 | 0.00 | 0.00 | 45 | 940.6 |
| 20260905112131 | 87 | 283 | 0.0 | 0.0 | 0.00 | 0.00 | 0.00 | 44 | 940.6 |
| 20260905111902 | 87 | 223 | 0.0 | 0.0 | 0.00 | 0.00 | 0.00 | 43 | 940.8 |
| 20260905111636 | 87 | 223 | 0.0 | 0.0 | 0.00 | 0.00 | 0.00 | 43 | 940.8 |
| 20260905111134 | 87 | 271 | 0.0 | 0.0 | 0.00 | 0.00 | 0.00 | 42 | 940.7 |
| 20260905110638 | 87 | 278 | 0.0 | 0.0 | 0.00 | 0.00 | 0.00 | 44 | 940.8 |
| 20260905110132 | 87 | 214 | 0.0 | 3.5 | 0.00 | 0.00 | 0.00 | 45 | 940.8 |
| 20260905105858 | 86 | 237 | 0.0 | 3.5 | 0.00 | 0.00 | 0.00 | 45 | 940.7 |
| 20260905105744 | 86 | 237 | 0.0 | 3.5 | 0.00 | 0.00 | 0.00 | 45 | 940.7 |
| 20260905105625 | 87 | 158 | 0.0 | 0.0 | 0.00 | 0.00 | 0.00 | 43 | 940.7 |
| 20260905105131 | 87 | 158 | 0.0 | 0.0 | 0.00 | 0.00 | 0.00 | 43 | 940.7 |
| 20260905104634 | 87 | 261 | 0.0 | 0.0 | 0.00 | 0.00 | 0.00 | 44 | 940.7 |
| 20260905104402 | 87 | 203 | 0.0 | 0.9 | 0.00 | 0.00 | 0.00 | 44 | 940.7 |
| 20260905104134 | 87 | 203 | 0.0 | 0.9 | 0.00 | 0.00 | 0.00 | 44 | 940.7 |
| 20260905103633 | 87 | 214 | 0.0 | 3.5 | 0.00 | 0.00 | 0.00 | 44 | 940.7 |
| 20260905103356 | 88 | 248 | 0.9 | 3.5 | 0.00 | 0.00 | 0.00 | 45 | 940.8 |
| 20260905103133 | 88 | 248 | 0.9 | 3.5 | 0.00 | 0.00 | 0.00 | 45 | 940.8 |
| 20260905102637 | 87 | 235 | 0.0 | 0.0 | 0.00 | 0.00 | 0.00 | 44 | 940.7 |
| 20260905102133 | 87 | 241 | 0.0 | 0.0 | 0.00 | 0.00 | 0.00 | 44 | 940.8 |